Location: Unspecified
(0.0000°N, 0.0000°E)
Time: 12:01:30
(UTC+00:00)

S-56A Canister/Altair - Pass Details

Date: 19 December 2018
Orbit: 633 x 2500 km, 38.9° (Epoch: 25 March)

Event Time Altitude Azimuth Distance (km) Brightness Sun altitude
Rises 11:32:58 0° 293° (WNW) 6,163 12.0 65.9°
Reaches altitude 10° 11:37:36 10° 286° (WNW) 5,083 11.7 66.1°
Maximum altitude 11:50:17 37° 224° (SW) 2,924 11.4 66.5°
Drops below altitude 10° 12:00:05 10° 160° (SSE) 3,912 11.6 66.6°
Sets 12:03:11 0° 151° (SSE) 4,643 11.8 66.5°
